#timestamp,LO_Frequency,Hit,StdDev 
1508050815.6,286047003.5,N
1508050835.4,286046998.2,N
1508050855.2,286046996.7,N
1508050875.1,286046993.9,N
1508050876.0,286046993.9,N
1508050895.8,286046994.4,N
1508050915.6,286046990.8,N
1508050935.5,286046994.2,N
1508050955.3,286046992.0,N
1508050975.1,286046993.2,N
1508050995.8,286046990.6,N
1508051015.7,286046989.0,N
1508051035.5,286046986.2,Y
1508051055.4,286046988.6,P
1508051075.2,286046987.1,N
1508051095.0,286046987.2,N
1508051095.9,286046987.2,N
1508051115.8,286046987.3,Y
1508051135.6,286046995.3,P
1508051155.4,286046993.5,N
1508051175.2,286046997.1,N
1508051195.1,286046995.1,N
1508051196.0,286046995.1,N
1508051215.8,286046995.2,N
1508051235.7,286046991.7,Y
1508051255.5,286047001.9,P
1508051275.3,286047002.6,N
1508051295.2,286047002.8,N
1508051315.9,286047002.3,N
1508051335.7,286047000.8,N
1508051355.5,286047002.6,N
1508051375.4,286047000.9,N
1508051395.2,286046995.1,N
1508051415.0,286046998.2,N
1508051415.9,286046998.2,N
1508051435.8,286046998.2,N
1508051455.6,286046996.4,N
1508051475.4,286046995.7,N
1508051495.3,286046997.5,N
1508051515.1,286046998.7,N
1508051516.0,286046998.7,N
1508051535.8,286046996.4,N
1508051555.7,286046992.0,N
1508051575.5,286046991.7,N
1508051595.3,286046994.5,N
1508051615.2,286046993.2,N
1508051635.9,286046992.5,N
1508051655.7,286046992.3,N
1508051675.5,286046995.8,N
1508051695.4,286046994.1,N
1508051715.2,286046995.8,N
1508051735.0,286046992.6,N
1508051735.9,286046992.6,N
1508051755.8,286046991.8,N
1508051775.6,286046994.2,N
1508051795.4,286046990.6,N
1508051815.3,286046989.3,N
1508051835.1,286046988.7,Y
1508051855.8,286046993.3,P
1508051875.7,286046994.5,P
1508051895.5,286046993.9,P
1508051915.3,286046992.9,Y
1508051935.2,286047000.2,P
1508051955.9,286046997.0,N
1508051975.7,286046998.8,N
1508051995.6,286047001.1,N
1508052015.4,286046999.0,N
1508052035.2,286046999.2,N
1508052055.1,286046998.2,N
1508052056.0,286046998.2,N
1508052075.8,286047000.1,N
1508052095.6,286047003.8,N
1508052115.5,286047001.5,N
1508052135.3,286047002.3,N
1508052155.1,286046998.7,N
1508052175.9,286047000.9,N
1508052195.7,286047001.9,N
1508052215.5,286047005.4,N
1508052235.4,286047007.2,N
1508052255.2,286047004.7,N
1508052275.0,286047004.5,N
1508052275.9,286047004.5,N
1508052295.7,286047005.0,N
1508052315.6,286047002.6,N
1508052335.4,286047000.3,N
1508052355.2,286046996.7,N
1508052375.1,286046999.6,N
1508052376.0,286046999.6,N
1508052395.8,286046996.8,N
1508052415.6,286046997.9,N
1508052435.5,286046994.9,N
1508052455.3,286046995.4,N
1508052475.1,286046998.3,N
1508052495.9,286046999.1,N
1508052515.7,286046999.3,N
1508052535.5,286046996.5,N
1508052555.4,286046997.7,N
1508052575.2,286046991.0,N
1508052595.5,286046991.6,N
1508052615.3,286046991.9,N
1508052635.2,286046992.1,N
1508052655.9,286046992.3,N
1508052675.7,286046995.5,N
1508052695.6,286046999.1,N
1508052715.4,286046997.5,N
1508052735.2,286046997.0,N
1508052755.1,286046995.7,N
1508052756.0,286046995.7,N
1508052775.8,286046993.4,N
1508052795.6,286046994.2,N
1508052815.5,286046995.0,N
1508052835.3,286046998.4,N
1508052855.1,286047001.8,N
1508052875.9,286047007.1,N
1508052895.7,286047006.7,N
1508052915.5,286047004.9,N
1508052935.3,286047006.0,N
1508052955.2,286047000.8,N
1508052975.0,286047000.1,N
1508052975.9,286047000.1,N
1508052995.7,286046999.2,N
1508053015.6,286047000.1,N
1508053035.4,286046999.4,N
1508053055.2,286046995.2,N
1508053075.1,286046998.0,N
1508053076.0,286046998.0,N
1508053095.8,286046993.4,N
1508053115.6,286046995.6,N
1508053135.5,286046996.9,N
1508053155.3,286046999.8,N
1508053175.7,286046997.8,N
1508053195.5,286046994.4,N
1508053215.3,286046994.7,N
1508053235.2,286046995.6,N
1508053255.9,286046993.9,N
1508053275.7,286046994.7,N
1508053295.5,286046993.3,N
1508053315.4,286046992.2,N
1508053335.2,286046993.1,N
1508053355.0,286046990.3,N
1508053355.9,286046990.3,N
1508053375.8,286046989.3,N
1508053395.6,286046996.7,N
1508053415.4,286046996.1,N
1508053435.3,286046993.4,N
1508053455.1,286046992.2,N
1508053456.0,286046992.2,N
1508053475.8,286046995.9,N
1508053495.7,286046994.7,N
1508053515.5,286046993.5,N
1508053535.3,286046996.7,N
1508053555.2,286046999.5,N
1508053575.9,286046997.7,N
1508053595.7,286046994.8,N
1508053615.6,286046992.0,Y
1508053635.4,286047002.5,P
1508053655.2,286046998.7,N
1508053675.1,286047003.9,N
1508053676.0,286047003.9,N
1508053695.8,286047004.1,N
1508053715.6,286047005.7,N
1508053735.4,286047004.0,N
1508053755.3,286047006.3,N
1508053775.1,286047002.5,N
1508053795.8,286047002.7,N
1508053815.7,286047000.8,N
1508053835.5,286046999.5,N
1508053855.3,286046997.9,N
1508053875.2,286046996.5,N
1508053895.9,286046995.8,N
1508053915.7,286046995.0,N
1508053935.6,286046994.8,N
1508053955.4,286046991.4,N
1508053975.2,286046992.3,N
1508053995.1,286046992.3,N
1508053996.0,286046992.3,N
1508054015.8,286046994.8,N
1508054035.6,286046992.3,N
1508054055.5,286046990.3,N
1508054075.3,286046991.5,N
1508054095.1,286046991.2,N
1508054115.8,286046992.4,N
1508054135.7,286046988.9,N
1508054155.5,286046988.9,N
1508054175.3,286046994.1,N
1508054195.2,286046992.0,N
1508054215.9,286046991.3,N
1508054235.7,286046992.5,N
1508054255.6,286046994.7,N
1508054275.4,286046992.4,N
1508054295.2,286046994.2,N
1508054315.1,286046995.6,N
1508054316.0,286046995.6,N
1508054335.8,286046996.4,N
1508054355.6,286046997.3,N
1508054375.5,286046997.4,N
1508054395.3,286046996.8,N
